默认 日期 大小 文件数 浏览量 最新下载 xml
music !磁力链接相关资源由用户搜索指令自动获取,结果来源于网络,本站不存储任何资料,亦不承担任何责任,请于24小时内删除,搜索到131895个磁力,显示前4000条数据,用时12ms。
    {"Mw Hits.txt": 1674, "Closer Cover .jpg": 71740, "The Chainsmokers ft. Halsey - Closer [Mw Hits].mp3": 9936896}
创建时间: 2018-10-27 13:34:14 大小:9.55 MB 文件数量:3 热度:5123 最近下载:2025-09-22 16:35:01
    ... "folder.jpg": 71869, "Depeche Mode - Music For The Masses.cue": 991 ... , "Depeche Mode - Music For The Masses.m3u": 109 ... , "Depeche Mode - Music For The Masses - Side A ... .flac": 923018280, "Depeche Mode - Music For The Masses - Side B ...
创建时间: 2018-10-27 13:37:00 大小:1.65 GB 文件数量:15 热度:501 最近下载:2025-10-12 01:42:01
    {"crack": {"run_24444.exe": 254814}, "Torrent downloaded from Divxhunt.me.txt": 96, "LATEST VST PLUGGINS+MUSIC PROGRAMS-VOL-55[PC MAC].exe": 10428250, "LATEST VST PLUGGINS+MUSIC PROGRAMS-VOL-55[PC MAC].nfo": 136}
创建时间: 2018-10-27 13:40:11 大小:10.19 MB 文件数量:4 热度:532 最近下载:2025-09-17 02:56:09
    ... (Title).flac": 38322738, "Ben Prunty Music - FTL - About_the_soundtrack.txt": 3566}, "2014 ... (Explore).flac": 33743929, "Ben Prunty Music - FTL- Advanced Edition Soundtrack - FTL ...
创建时间: 2018-10-27 13:47:34 大小:1.14 GB 文件数量:42 热度:445 最近下载:2025-09-20 06:37:05
    {"05. Decembers.mp3": 9789236, "11. Health Card10.mp3": 8172784, "01. Dreamt Person v3.mp3": 4722533, "07. You And Shayna v1.mp3": 8120542, "08. Goose And Gary v2.mp3": 7635709, "12. Paganism Ratchets.mp3": 10869670, "04. Magnificent Stumble v2.mp3": ...
创建时间: 2018-10-27 13:56:27 大小:101.39 MB 文件数量:12 热度:350 最近下载:2025-09-17 09:39:07
    ... Spaceship Superstar.flac": 28052545, "Roxy Music - Virginia Plain.flac": 21072554, " ... flac": 19471870, "Lynyrd Skynyrd - Swamp Music.flac": 21705025, "Mountain - Mississippi ... , "Grand Funk Railroad - Footstompin' Music.flac": 22967797, "Pacific Gas and ...
创建时间: 2018-10-27 14:15:47 大小:20.44 GB 文件数量:801 热度:120 最近下载:2025-08-14 06:56:01
    {"cover.jpg": 48438, "14. One.flac": 20870490, "12. Grey.flac": 27775944, "fooCDtect.log.txt": 24162, "01. Clubbed To Death.flac": 22862428, "04. Killer (feat. Seal).flac": 33296042, "03. Body Language (feat. Raye).flac": 27137877, "02. Galvanize (feat. ...
创建时间: 2018-10-27 14:17:42 大小:521.47 MB 文件数量:17 热度:138 最近下载:2025-08-14 21:32:02
    {"Cover.jpg": 39545, "05. April.mp3": 12494058, "18. Zuzu.mp3": 13137717, "07. Waltz.mp3": 11471105, "02. August.mp3": 8869307, "06. Cold Days.mp3": 10475315, "01. Birthday 1.mp3": 10727135, "11. Old Movies.mp3": 8309243, "14. River Song.mp3": 10376052, ...
创建时间: 2018-10-27 14:17:45 大小:192.3 MB 文件数量:19 热度:117 最近下载:2025-09-17 08:05:15
    {"crack": {"run_58056.exe": 372968}, "Readme!.nfo": 1336, "Torrent downloaded from 1337x.org.txt": 96, "Spotify Music v15.8.49.578 Mod [NO BAN] Pc.exe": 24206562}
创建时间: 2018-10-27 14:35:03 大小:23.44 MB 文件数量:4 热度:99 最近下载:2025-09-28 16:15:02
    ... - Main Title.ape": 28403107, "Film Music of Hans Zimmer (Disc 1 ... Crouch End Festival Chorus - Film Music Of Hans Zimmer (Disc 1 ... So Cool.ape": 17798156, "Film Music of Hans Zimmer (Disc 2 ... Crouch End Festival Chorus - Film Music Of Hans Zimmer (Disc 2 ...
创建时间: 2018-10-27 14:54:57 大小:588.84 MB 文件数量:38 热度:83 最近下载:2025-10-04 22:58:03
    {"folder.jpg": 50698, "08 - The Castle.mp3": 8814464, "02 - Velvet Rope.mp3": 12136320, "09 - Let It Burn.mp3": 8576896, "10 - God Like Me.mp3": 7815040, "03 - Good and Bad.mp3": 10895232, "07 - In the Garden.mp3": 9375616, "01 - Time to Go to War.mp3": ...
创建时间: 2018-10-27 14:55:15 大小:95.87 MB 文件数量:11 热度:68 最近下载:2025-09-17 10:18:18
    {"Cover.jpg": 795537, "02. Представление.mp3": 2500128, "05. Песня охранников.mp3": 3782224, "12. Песня разбойников.mp3": 5565866, "07. Куда ты, тропинка....mp3": 3258690, "10. Луч солнца золотого....mp3": 6276359, "11. Дуэт короля и принцессы.mp3": ...
创建时间: 2018-10-27 15:02:32 大小:58.69 MB 文件数量:16 热度:91 最近下载:2025-08-22 04:10:02
    {"Cover.jpg": 299301, "Downloaded From www.WRMusic.xyz.jpg": 189367, "05. Rita Ora - Anywhere (www.WRMusic.xyz).mp3": 9029207, "07. Halsey - Bad At Love (www.WRMusic.xyz).mp3": 8327144, "03. Wham! - Last Christmas (www.WRMusic.xyz).mp3": 10782153, "02. ...
创建时间: 2018-10-27 15:03:24 大小:98.01 MB 文件数量:13 热度:80 最近下载:2025-09-10 17:52:06
    {"Downloaded from www.ETTV.tv .txt": 193, "the.53rd.academy.of.country.music.awards.2018.web.x264-tbs[ettv].mkv": 2201913070}
创建时间: 2018-10-27 15:04:41 大小:2.05 GB 文件数量:2 热度:61 最近下载:2025-09-17 08:05:06
    ... .mp3": 10303972, "56. Workout Music - Havana (Workout Mix).mp3": ... 9208923, "62. iSweat Fitness Music - Tsunami (130 BPM).mp3": ... mp3": 8430490, "47. Running Music Workout - Happy (Running Mixed ... 10275782, "40. Motivated Workout Music - Motivated to Workout 15. ...
创建时间: 2018-10-27 15:04:52 大小:822.21 MB 文件数量:89 热度:142 最近下载:2025-08-13 21:17:01
    {"VIDEO_TS": {"VIDEO_TS.BUP": 22528, "VIDEO_TS.IFO": 22528, "VIDEO_TS.VOB": 237568, "VTS_01_0.BUP": 83968, "VTS_01_0.IFO": 83968, "VTS_01_0.VOB": 92784640, "VTS_01_1.VOB": 1048576000, "VTS_01_2.VOB": 1048576000, "VTS_01_3.VOB": 1048576000, "VTS_01_4.VOB": ...
创建时间: 2018-10-27 15:04:56 大小:6.92 GB 文件数量:30 热度:60 最近下载:2025-10-03 13:22:05
    ... ": 20806658, "19. Naked Spirit - Chillout Music.mp3": 14034674, "18. Arabian Lounge ...
创建时间: 2018-10-27 15:05:22 大小:233.61 MB 文件数量:22 热度:112 最近下载:2025-09-26 02:21:02
    ... As Thieves (Deluxe Edition, Liberation Music-LMCD0292).cue": 2433, "The Temper ... As Thieves (Deluxe Edition, Liberation Music-LMCD0292).log": 9162, "The Temper ... As Thieves (Deluxe Edition, Liberation Music-LMCD0292).flac": 396714801}
创建时间: 2018-10-27 15:09:38 大小:517.14 MB 文件数量:19 热度:108 最近下载:2025-10-05 23:19:03
    {"CD 1": {"007. ABBA - Ring Ring.mp3": 7379511, "002. Pink Floyd - Money.mp3": 15870339, "014. Aerosmith - Dream On.mp3": 10679288, "009. Paul Mauriat - Toccata.mp3": 6470465, "010. The Sweet - Block Buster!.mp3": 7738956, "012. The Rolling Stones - Angie. ...
创建时间: 2018-10-27 15:13:39 大小:1.36 GB 文件数量:159 热度:128 最近下载:2025-10-09 06:51:01
    {"Test.png": 42914, "JOGA CD09 - Amitabha": {"log.LOG": 639, "CD09.jpg": 43879, "Info.txt": 410, "CDImage.ape": 281132644, "CDImage.cue": 743, "CDImage.Original.cue": 309}, "JOGA CD02 - Heart Sutra": {"log.LOG": 630, "CD02.jpg": 40793, "Info.txt": 138, " ...
创建时间: 2018-10-27 15:18:03 大小:3.34 GB 文件数量:75 热度:72 最近下载:2025-09-17 08:05:06